Date String (YYYY-MM-DD hh:mm:ss) UTC,Instrument flags,Ambient pressure (hPa),Sample flow (lpm),Bypass flow (lpm),Sample temperature (°C),Ambient temperature (°C),ASC tube jacket temperature (°C),LED temperature (°C),Box temperature (°C),Sample RH (%),Span deviation,Mass concentration (μg/m³),Mass concentration (μg/m³),Mass concentration (μg/m³)
DateTimeUTC,F1_M11,P_M11,Q1_M11,Q2_M11,T1_M11,T2_M11,T3_M11,T4_M11,T5_M11,U1_M11,ZSPAN_M11,X0_M11,X2_M11,X1_M11
2021-09-08 06:00:00,,0832.4,5.01,0.00,29.9,28.9,00.0,38.9,31.7,16.7,0001.0,0056.99,0038.66,0036.03
2021-09-08 06:01:00,,0832.4,4.99,0.00,29.9,28.7,00.0,38.9,31.6,16.7,0001.0,0057.39,0038.69,0036.06
2021-09-08 06:02:00,,0832.5,5.00,0.00,29.8,26.9,00.0,38.8,31.2,16.7,0000.8,0057.43,0038.70,0036.08
2021-09-08 06:03:00,,0832.5,5.01,0.00,29.7,26.2,00.0,38.8,31.0,16.9,0001.0,0057.36,0038.75,0036.13
2021-09-08 06:04:00,,0832.5,5.00,0.00,29.6,26.4,00.0,38.8,31.0,16.9,0001.3,0058.07,0038.82,0036.15
2021-09-08 06:05:00,,0832.4,4.99,0.00,29.5,26.8,00.0,38.7,31.0,17.0,0001.3,0057.34,0038.78,0036.19
2021-09-08 06:06:00,,0832.4,5.01,0.00,29.5,27.2,00.0,38.7,31.1,17.0,0001.3,0056.73,0038.80,0036.21
2021-09-08 06:07:00,,0832.4,4.99,0.00,29.5,27.5,00.0,38.7,31.1,17.0,0001.4,0056.44,0038.80,0036.24
2021-09-08 06:08:00,,0832.4,5.01,0.00,29.5,27.7,00.0,38.7,31.1,17.0,0001.0,0055.89,0038.74,0036.21
2021-09-08 06:09:00,,0832.4,5.01,0.00,29.5,27.9,00.0,38.7,31.2,17.0,0001.0,0055.75,0038.66,0036.17
2021-09-08 06:10:00,,0832.4,4.99,0.00,29.5,28.1,00.0,38.7,31.2,17.0,0000.7,0055.45,0038.66,0036.16
2021-09-08 06:11:00,,0832.3,5.01,0.00,29.5,28.2,00.0,38.7,31.2,16.9,0000.9,0055.45,0038.70,0036.13
2021-09-08 06:12:00,,0832.3,5.00,0.00,29.6,28.3,00.0,38.7,31.3,16.9,0000.9,0055.77,0038.80,0036.14
2021-09-08 06:13:00,,0832.3,5.00,0.00,29.6,28.4,00.0,38.7,31.3,16.9,0001.1,0056.39,0038.80,0036.08
2021-09-08 06:14:00,,0832.3,4.99,0.00,29.6,28.4,00.0,38.7,31.3,16.8,0001.1,0056.77,0038.80,0036.06
2021-09-08 06:15:00,,0832.3,5.00,0.00,29.6,28.5,00.0,38.7,31.4,16.8,0000.9,0056.34,0038.87,0036.10
2021-09-08 06:16:00,,0832.3,5.00,0.00,29.7,28.6,00.0,38.7,31.4,16.8,0000.7,0056.06,0038.85,0036.04
2021-09-08 06:17:00,,0832.3,5.00,0.00,29.7,28.6,00.0,38.7,31.4,16.8,0000.8,0056.52,0038.86,0036.01
2021-09-08 06:18:00,,0832.3,4.99,0.00,29.7,28.7,00.0,38.7,31.4,16.8,0000.9,0057.25,0038.97,0036.02
2021-09-08 06:19:00,,0832.4,5.00,0.00,29.7,28.7,00.0,38.8,31.5,16.7,0001.2,0058.09,0039.04,0036.06
2021-09-08 06:20:00,,0832.4,5.00,0.00,29.8,28.7,00.0,38.8,31.5,16.6,0001.3,0059.34,0039.20,0036.13
2021-09-08 06:21:00,,0832.4,4.99,0.00,29.8,28.8,00.0,38.8,31.5,16.6,0001.3,0059.99,0039.28,0036.16
2021-09-08 06:22:00,,0832.3,4.99,0.00,29.8,28.8,00.0,38.8,31.6,16.6,0001.5,0060.84,0039.31,0036.22
2021-09-08 06:23:00,,0832.3,5.00,0.00,29.8,28.8,00.0,38.8,31.6,16.5,0001.1,0061.33,0039.28,0036.24
2021-09-08 06:24:00,,0832.3,5.01,0.00,29.9,28.9,00.0,38.9,31.6,16.5,0000.9,0061.57,0039.30,0036.25
2021-09-08 06:25:00,,0832.3,4.99,0.00,29.9,28.9,00.0,38.9,31.7,16.5,0001.0,0061.26,0039.30,0036.24
2021-09-08 06:26:00,,0832.3,5.02,0.00,29.9,28.9,00.0,38.9,31.7,16.4,0001.3,0061.30,0039.25,0036.23
2021-09-08 06:27:00,,0832.4,4.99,0.00,29.9,28.9,00.0,38.9,31.7,16.4,0001.3,0061.49,0039.34,0036.31
2021-09-08 06:28:00,,0832.4,5.01,0.00,29.9,28.3,00.0,38.9,31.5,16.4,0001.5,0061.89,0039.40,0036.37
2021-09-08 06:29:00,,0832.4,4.99,0.00,29.8,26.4,00.0,38.9,31.1,16.5,0001.6,0061.56,0039.36,0036.37
2021-09-08 06:30:00,,0832.3,5.01,0.00,29.7,26.1,00.0,38.9,31.0,16.6,0001.8,0061.28,0039.35,0036.38
2021-09-08 06:31:00,,0832.3,5.00,0.00,29.6,26.5,00.0,38.8,31.0,16.7,0001.7,0061.06,0039.25,0036.35
2021-09-08 06:32:00,,0832.3,5.00,0.00,29.5,26.9,00.0,38.8,31.0,16.7,0001.7,0060.77,0039.27,0036.35
2021-09-08 06:33:00,,0832.2,5.01,0.00,29.5,27.2,00.0,38.8,31.0,16.7,0001.6,0060.15,0039.29,0036.33
2021-09-08 06:34:00,,0832.3,5.01,0.00,29.5,27.5,00.0,38.7,31.1,16.7,0001.8,0059.25,0039.23,0036.30
2021-09-08 06:35:00,,0832.2,5.00,0.00,29.5,27.8,00.0,38.7,31.2,16.6,0001.8,0058.27,0039.20,0036.31
2021-09-08 06:36:00,,0832.3,4.99,0.00,29.5,28.0,00.0,38.7,31.2,16.5,0001.7,0058.34,0039.18,0036.32
2021-09-08 06:37:00,,0832.3,5.00,0.00,29.6,28.1,00.0,38.7,31.2,16.5,0001.6,0058.63,0039.24,0036.37
2021-09-08 06:38:00,,0832.3,5.01,0.00,29.6,28.2,00.0,38.7,31.2,16.5,0001.6,0057.72,0039.17,0036.36
2021-09-08 06:39:00,,0832.3,5.00,0.00,29.6,28.3,00.0,38.7,31.3,16.4,0001.5,0056.77,0039.15,0036.42
2021-09-08 06:40:00,,0832.3,5.00,0.00,29.6,28.4,00.0,38.7,31.4,16.4,0001.6,0056.88,0039.19,0036.48
2021-09-08 06:41:00,,0832.2,4.99,0.00,29.7,28.5,00.0,38.7,31.4,16.3,0001.6,0056.97,0039.27,0036.55
2021-09-08 06:42:00,,0832.3,5.00,0.00,29.7,28.5,00.0,38.7,31.4,16.2,0001.5,0056.13,0039.40,0036.65
2021-09-08 06:43:00,,0832.3,5.00,0.00,29.7,28.6,00.0,38.7,31.4,16.2,0001.4,0055.54,0039.41,0036.74
2021-09-08 06:44:00,,0832.3,4.99,0.00,29.7,28.6,00.0,38.8,31.5,16.2,0001.4,0055.12,0039.45,0036.85
2021-09-08 06:45:00,,0832.3,5.00,0.00,29.7,28.7,00.0,38.8,31.5,16.2,0001.4,0055.48,0039.60,0036.98
2021-09-08 06:46:00,,0832.3,5.01,0.00,29.8,28.7,00.0,38.8,31.5,16.1,0001.5,0055.83,0039.71,0037.07
2021-09-08 06:47:00,,0832.3,4.99,0.00,29.8,28.8,00.0,38.8,31.5,16.0,0001.7,0055.71,0039.85,0037.17
2021-09-08 06:48:00,,0832.3,5.00,0.00,29.8,28.8,00.0,38.8,31.6,16.0,0001.8,0055.90,0039.89,0037.21
2021-09-08 06:49:00,,0832.4,5.01,0.00,29.8,28.8,00.0,38.8,31.6,15.9,0001.6,0056.02,0040.03,0037.34
2021-09-08 06:50:00,,0832.4,5.01,0.00,29.9,28.9,00.0,38.9,31.6,16.0,0001.5,0056.54,0040.09,0037.38
2021-09-08 06:51:00,,0832.4,4.99,0.00,29.9,28.9,00.0,38.9,31.6,15.9,0001.6,0056.16,0040.18,0037.45
2021-09-08 06:52:00,,0832.3,5.00,0.00,29.9,28.9,00.0,38.9,31.7,16.0,0001.4,0056.53,0040.25,0037.49
2021-09-08 06:53:00,,0832.3,4.99,0.00,29.9,28.9,00.0,38.9,31.7,15.9,0001.6,0056.85,0040.26,0037.49
2021-09-08 06:54:00,,0832.3,5.00,0.00,30.0,29.0,00.0,38.9,31.7,15.9,0001.7,0057.74,0040.33,0037.52
2021-09-08 06:55:00,,0832.3,5.00,0.00,30.0,29.0,00.0,39.0,31.7,15.9,0001.6,0058.26,0040.36,0037.54
2021-09-08 06:56:00,,0832.2,5.01,0.00,30.0,29.0,00.0,39.0,31.7,15.9,0001.6,0059.00,0040.37,0037.57
2021-09-08 06:57:00,,0832.3,4.99,0.00,30.0,27.9,00.0,39.0,31.5,15.8,0001.8,0058.98,0040.37,0037.63
2021-09-08 06:58:00,,0832.2,5.00,0.00,29.8,26.2,00.0,38.9,31.0,16.0,0001.5,0059.30,0040.38,0037.66
2021-09-08 06:59:00,,0832.3,5.01,0.00,29.7,26.2,00.0,38.9,31.0,16.0,0001.4,0059.08,0040.39,0037.72
